CW2640 Weather Reports


Display with metric or nautical units.
time (UTC)temp
F
wind
direction
speed
MPH
gust
MPH
rain 1hr
in
rain 24hr
in
rain mn
in
humidity
%
barometer
mb
20260901053812 75 80 0.0 0.0 0.00 0.00 0.00 99 1018.9
20260901050810 75 80 0.0 0.0 0.00 0.00 0.00 99 1018.8
20260901043806 75 80 0.0 0.0 0.00 0.00 0.00 99 1018.9
20260901040804 76 80 0.0 0.0 0.00 0.00 0.00 99 1019.0
20260901033801 76 80 0.0 0.0 0.00 0.00 0.00 99 1019.0
20260901030756 77 81 0.0 0.0 0.00 0.00 0.00 98 1019.1
20260901023754 77 85 0.0 0.0 0.00 0.00 0.00 97 1019.1
20260901020750 78 91 0.0 0.0 0.00 0.00 0.00 96 1019.0
20260901013750 79 100 0.0 0.0 0.00 0.00 0.00 94 1018.4
20260901010749 80 103 0.0 0.0 0.00 0.00 0.00 91 1018.2
20260901003744 81 103 0.0 0.0 0.00 0.00 0.00 88 1017.9
20260901000743 84 103 0.0 0.0 0.00 0.00 0.00 82 1017.9
20260831233739 86 98 0.0 0.0 0.00 0.00 0.00 74 1018.1
20260831230735 89 93 0.0 0.0 0.00 0.00 0.00 69 1017.9
20260831223734 91 84 0.0 0.0 0.00 0.00 0.00 64 1018.2
20260831220730 92 81 0.0 0.0 0.00 0.00 0.00 60 1018.2
20260831213729 93 80 0.0 0.0 0.00 0.00 0.00 59 1018.4
20260831210728 93 80 0.0 0.0 0.00 0.00 0.00 60 1018.4
20260831203725 95 80 0.0 0.0 0.00 0.00 0.00 56 1018.7
20260831200726 92 80 0.0 0.0 0.00 0.00 0.00 61 1019.0
20260831193724 94 80 0.0 0.0 0.00 0.00 0.00 57 1019.2
20260831190721 94 80 0.0 0.0 0.00 0.00 0.00 57 1019.7
20260831183717 93 80 0.0 0.0 0.00 0.00 0.00 59 1020.2
20260831180714 93 80 0.0 0.0 0.00 0.00 0.00 60 1020.4
20260831173710 92 80 0.0 0.0 0.00 0.00 0.00 62 1020.7
20260831170707 91 80 0.0 0.0 0.00 0.00 0.00 66 1021.0
20260831163706 91 80 0.0 0.0 0.00 0.00 0.00 69 1021.3
20260831160702 89 80 0.0 0.0 0.00 0.00 0.00 72 1021.5
20260831153700 88 80 0.0 0.0 0.00 0.00 0.00 74 1021.6
20260831150655 87 80 0.0 0.0 0.00 0.00 0.00 75 1021.7
20260831143654 85 80 0.0 0.0 0.00 0.00 0.00 81 1021.6
20260831140651 83 80 0.0 0.0 0.00 0.00 0.00 85 1021.5
20260831133648 78 80 0.0 0.0 0.00 0.00 0.00 94 1021.7
20260831130648 75 80 0.0 0.0 0.00 0.00 0.00 99 1021.4
20260831123647 72 80 0.0 0.0 0.00 0.00 0.00 99 1021.2
20260831120644 71 80 0.0 0.0 0.00 0.00 0.00 99 1020.7
20260831113642 71 80 0.0 0.0 0.00 0.00 0.00 99 1020.1
20260831110642 72 80 0.0 0.0 0.00 0.00 0.00 99 1020.0
20260831103642 72 80 0.0 0.0 0.00 0.00 0.00 99 1019.8
20260831100642 72 80 0.0 0.0 0.00 0.00 0.00 99 1019.4
20260831093641 72 80 0.0 0.0 0.00 0.00 0.00 99 1019.3
20260831090636 72 80 0.0 0.0 0.00 0.00 0.00 99 1019.3
20260831083633 72 80 0.0 0.0 0.00 0.00 0.00 99 1019.1
20260831080632 72 80 0.0 0.0 0.00 0.00 0.00 99 1018.9
20260831073630 73 80 0.0 0.0 0.00 0.00 0.00 99 1019.0
20260831070626 73 80 0.0 0.0 0.00 0.00 0.00 99 1018.8
20260831063623 73 80 0.0 0.0 0.00 0.00 0.00 99 1018.8
20260831060620 73 80 0.0 0.0 0.00 0.00 0.00 99 1019.1